This is the latest recevied weather packets stored in our database for station/object PA3BWK. If no packets are shown the sender has not sent any weather packets the latest 10 day(s).
| Time | Temp. | Humidity | Pressure | Rain* | Wind** | Luminosity | Snow |
|---|---|---|---|---|---|---|---|
| 1777554244 | 20° C | 25% | 1027.4 hPa | 0 mm | - | 754 W/m² | - |
| 1777554184 | 20° C | 25% | 1027.5 hPa | 0 mm | - | 754 W/m² | - |
| 1777554124 | 20° C | 25% | 1027.4 hPa | 0 mm | - | 754 W/m² | - |
| 1777554064 | 20° C | 26% | 1027.5 hPa | 0 mm | - | 756 W/m² | - |
| 1777554004 | 20° C | 27% | 1027.5 hPa | 0 mm | - | 758 W/m² | - |
| 1777553943 | 20° C | 25% | 1027.5 hPa | 0 mm | - | 758 W/m² | - |
| 1777553884 | 20° C | 25% | 1027.4 hPa | 0 mm | - | 758 W/m² | - |
| 1777553824 | 20° C | 25% | 1027.4 hPa | 0 mm | - | 761 W/m² | - |
| 1777553764 | 19.44° C | 26% | 1027.6 hPa | 0 mm | - | 761 W/m² | - |
| 1777553704 | 19.44° C | 28% | 1027.5 hPa | 0 mm | - | 763 W/m² | - |
| 1777553643 | 19.44° C | 25% | 1027.6 hPa | 0 mm | - | 761 W/m² | - |
| 1777553583 | 19.44° C | 24% | 1027.5 hPa | 0 mm | - | 763 W/m² | - |
| 1777553533 | 19.44° C | 24% | 1027.5 hPa | 0 mm | - | 763 W/m² | - |
| 1777553474 | 19.44° C | 24% | 1027.5 hPa | 0 mm | - | 763 W/m² | - |
| 1777553404 | 19.44° C | 25% | 1027.5 hPa | 0 mm | - | 765 W/m² | - |
| 1777553345 | 19.44° C | 26% | 1027.6 hPa | 0 mm | - | 765 W/m² | - |
| 1777553283 | 19.44° C | 26% | 1027.5 hPa | 0 mm | - | 774 W/m² | - |
| 1777553223 | 19.44° C | 24% | 1027.5 hPa | 0 mm | - | 774 W/m² | - |
| 1777553163 | 19.44° C | 25% | 1027.5 hPa | 0 mm | - | 770 W/m² | - |
| 1777553103 | 20° C | 25% | 1027.6 hPa | 0 mm | - | 767 W/m² | - |
| 1777553043 | 20° C | 26% | 1027.6 hPa | 0 mm | - | 767 W/m² | - |
| 1777552983 | 20° C | 28% | 1027.6 hPa | 0 mm | - | 767 W/m² | - |
| 1777552922 | 19.44° C | 28% | 1027.5 hPa | 0 mm | - | 768 W/m² | - |
| 1777552862 | 19.44° C | 25% | 1027.5 hPa | 0 mm | - | 772 W/m² | - |
| 1777552803 | 19.44° C | 25% | 1027.6 hPa | 0 mm | - | 772 W/m² | - |
* Rain latest hour (hover to see other rain measurements)
** Current wind speed in m/s (hover to see current wind gust speed)